{"data":{"norad_id":59238,"epoch":"2026-09-20T21:35:34.498176Z","epoch_age_seconds":124290,"freshness":"FRESH","line1":"1 59238U 24049H   26263.89970484  .00000119  00000+0  13861-4 0  9997","line2":"2 59238  42.9995 120.8585 0001079 266.3942  93.6786 15.27577280142263","mean_motion":15.2757728,"eccentricity":0.0001079,"inclination_deg":42.9995,"raan_deg":120.8585,"arg_perigee_deg":266.3942,"mean_anomaly_deg":93.6786,"bstar":1.3861e-5,"rev_number":14226,"period_min":94.266916564771,"perigee_km":482.31691785168,"apogee_km":483.79756356883,"semimajor_km":6861.1942407103,"source":"CELESTRAK","updated_at":"2026-09-21T09:00:34.075559Z"}}